Weather History for KTVR - October, 2011

Change the Weather History Date:

Wednesday, October 19, 2011

  Actual Average Record
Temperature  
Mean Temperature 48 °F 65 °F  
Max Temperature 63 °F 78 °F 88 °F (2005)
Min Temperature 32 °F 51 °F 26 °F (1948)
Degree Days  
Heating Degree Days 17 3  
Month to date heating degree days 45 36  
Since 1 July heating degree days 46 41  
Cooling Degree Days 0 3  
Month to date cooling degree days 54 83  
Year to date cooling degree days 2545 2180  
Moisture  
Dew Point 36 °F    
Average Humidity 64    
Maximum Humidity 100    
Minimum Humidity 27    
Precipitation  
Precipitation 0.00 in 0.17 in 1.25 in (2006)
Month to date precipitation 0.35 2.88  
Year to date precipitation 27.45 42.34  
Sea Level Pressure  
Sea Level Pressure 29.92 in    
Wind  
Wind Speed 8 mph (NW)    
Max Wind Speed 21 mph    
Max Gust Speed 31 mph    
Visibility 8 miles    
Events Fog    
T = Trace of Precipitation, MM = Missing Value Source: NWS Daily Summary

Daily Weather History Graph

Daily Weather History Graph

Search for Another Location

Airport or City:

Trip Planner

Search our weather history database for the weather conditions in past years. The results will help you decide how hot, cold, wet, or windy it might be!

Date:

Astronomy

Oct. 19, 2011 Rise Set
Actual Time 7:10 AM CDT 6:27 PM CDT
Civil Twilight 6:45 AM CDT 6:51 PM CDT
Nautical Twilight 6:17 AM CDT 7:20 PM CDT
Astronomical Twilight 5:48 AM CDT 7:48 PM CDT
Moon No Moon Rise 1:32 PM CDT (10/19)
Length of Visible Light 12h 06m
Length of Day
11h 16m
Waning Gibbous, 54% of the Moon is Illuminated
Oct 19
Waning Gibbous
Oct 19
Last Quarter
Oct 26
New
Nov 2
First Quarter
Nov 10
Full

Hourly Weather History & Observations

Time (CDT) Temp. Windchill Dew Point Humidity Pressure Visibility Wind Dir Wind Speed Gust Speed Precip Events Conditions
12:53 AM 43.0 °F - 41.0 °F 93% 29.90 in 10.0 mi Calm Calm - N/A   Clear
1:53 AM 41.0 °F - 39.0 °F 93% 29.89 in 10.0 mi Calm Calm - N/A   Clear
2:53 AM 37.9 °F 33.5 °F 37.0 °F 97% 29.88 in 8.0 mi West 5.8 mph - N/A   Clear
3:53 AM 43.0 °F 40.3 °F 41.0 °F 93% 29.88 in 10.0 mi West 4.6 mph - N/A   Clear
4:32 AM 41.0 °F - 39.2 °F 93% 29.85 in 1.5 mi Calm Calm - N/A   Clear
4:41 AM 39.2 °F - 39.2 °F 100% 29.85 in 0.5 mi Calm Calm - N/A Fog Fog
4:53 AM 39.9 °F - 39.0 °F 97% 29.87 in 0.5 mi Calm Calm - N/A Fog Fog
6:04 AM 35.6 °F - 35.6 °F 100% 29.86 in 1.0 mi Calm Calm - N/A   Clear
6:18 AM 37.4 °F 34.9 °F 37.4 °F 100% 29.86 in 3.0 mi WNW 3.5 mph - N/A   Clear
6:53 AM 41.0 °F 37.1 °F 39.0 °F 93% 29.88 in 9.0 mi WNW 5.8 mph - N/A   Partly Cloudy
7:53 AM 44.1 °F 40.1 °F 42.1 °F 93% 29.89 in 10.0 mi WNW 6.9 mph - N/A   Clear
8:53 AM 46.9 °F - 42.1 °F 83% 29.91 in 10.0 mi NW 12.7 mph 17.3 mph N/A   Clear
9:53 AM 52.0 °F - 39.0 °F 61% 29.92 in 10.0 mi NW 11.5 mph 24.2 mph 0.00 in   Clear
11:53 AM 54.0 °F - 35.1 °F 49% 29.92 in 10.0 mi NW 15.0 mph 24.2 mph N/A   Mostly Cloudy
12:53 PM 55.9 °F - 35.1 °F 45% 29.92 in 10.0 mi NW 18.4 mph 24.2 mph N/A   Mostly Cloudy
1:53 PM 61.0 °F - 33.1 °F 35% 29.90 in 10.0 mi NW 12.7 mph 25.3 mph N/A   Mostly Cloudy
2:53 PM 60.1 °F - 30.9 °F 33% 29.89 in 10.0 mi NW 15.0 mph 21.9 mph N/A   Partly Cloudy
3:53 PM 62.1 °F - 30.0 °F 30% 29.90 in 10.0 mi NW 16.1 mph 28.8 mph N/A   Partly Cloudy
4:53 PM 62.1 °F - 28.0 °F 28% 29.91 in 10.0 mi NNW 13.8 mph 24.2 mph N/A   Clear
5:53 PM 59.0 °F - 27.0 °F 29% 29.93 in 10.0 mi NNW 9.2 mph 19.6 mph N/A   Clear
6:53 PM 54.0 °F - 36.0 °F 51% 29.97 in 10.0 mi NNE 9.2 mph - N/A   Clear
7:53 PM 46.0 °F - 37.0 °F 71% 29.99 in 10.0 mi Calm Calm - N/A   Clear
8:53 PM 44.1 °F 42.5 °F 37.0 °F 76% 30.01 in 10.0 mi NNW 3.5 mph - N/A   Clear
9:53 PM 37.9 °F 35.5 °F 35.1 °F 89% 30.04 in 10.0 mi West 3.5 mph - N/A   Clear
11:53 PM 34.0 °F 31.0 °F 32.0 °F 92% 30.06 in 10.0 mi WSW 3.5 mph - N/A   Clear